Weather History for KCON - February, 2013

Change the Weather History Date:

Friday, February 1, 2013

  Actual Average Record
Temperature  
Mean Temperature 23 °F 21 °F  
Max Temperature 30 °F 32 °F 62 °F (1989)
Min Temperature 16 °F 11 °F -26 °F (1971)
Degree Days  
Heating Degree Days 42 44  
Month to date heating degree days 42 44  
Since 1 July heating degree days 3861 4166  
Cooling Degree Days 0 0  
Month to date cooling degree days 0 0  
Year to date cooling degree days 0 0  
Moisture  
Dew Point 8 °F    
Average Humidity 54    
Maximum Humidity 74    
Minimum Humidity 34    
Precipitation  
Precipitation T in 0.09 in 1.16 in (2008)
Month to date precipitation T 0.09  
Year to date precipitation 1.55 2.79  
Snow  
Snow 0.00 in 0.50 in 12.00 in (1898)
Month to date snowfall 0.0 0.5  
Since 1 July snowfall 23.0 35.7  
Snow Depth T in    
Sea Level Pressure  
Sea Level Pressure 29.76 in    
Wind  
Wind Speed 13 mph (WNW)    
Max Wind Speed 24 mph    
Max Gust Speed 32 mph    
Visibility 9 miles    
Events Snow    
T = Trace of Precipitation, MM = Missing Value Source: NWS Daily Summary

Daily Weather History Graph

Daily Weather History Graph

Search for Another Location

Airport or City:

Trip Planner

Search our weather history database for the weather conditions in past years. The results will help you decide how hot, cold, wet, or windy it might be!

Date:

Astronomy

Feb. 01, 2013 Rise Set
Actual Time 7:01 AM EST 4:58 PM EST
Civil Twilight 6:31 AM EST 5:28 PM EST
Nautical Twilight 5:57 AM EST 6:02 PM EST
Astronomical Twilight 5:23 AM EST 6:36 PM EST
Moon 11:14 PM EST (2/1) 9:21 AM EST (2/1)
Length of Visible Light 10h 57m
Length of Day
9h 57m
Waning Gibbous, 70% of the Moon is Illuminated
Feb 1
Waning Gibbous
Feb 3
Last Quarter
Feb 10
New
Feb 17
First Quarter
Feb 25
Full

Hourly Weather History & Observations

Time (EST) Temp. Windchill Dew Point Humidity Pressure Visibility Wind Dir Wind Speed Gust Speed Precip Events Conditions
12:51 AM 28.0 °F 17.5 °F 8.1 °F 43% 29.55 in 10.0 mi West 12.7 mph 24.2 mph N/A   Mostly Cloudy
1:51 AM 27.0 °F 14.7 °F 9.0 °F 47% 29.57 in 10.0 mi West 16.1 mph 31.1 mph N/A   Overcast
2:51 AM 27.0 °F 14.3 °F 9.0 °F 47% 29.58 in 10.0 mi West 17.3 mph 29.9 mph N/A   Overcast
3:51 AM 26.1 °F 15.0 °F 9.0 °F 49% 29.59 in 10.0 mi West 12.7 mph 21.9 mph N/A   Overcast
4:51 AM 25.0 °F 15.5 °F 10.9 °F 55% 29.61 in 10.0 mi NW 9.2 mph 21.9 mph N/A   Overcast
5:51 AM 23.0 °F 11.7 °F 15.1 °F 72% 29.64 in 9.0 mi WNW 11.5 mph 23.0 mph 0.00 in Snow Light Snow
6:49 AM 23.0 °F 10.6 °F 15.8 °F 74% 29.66 in 3.0 mi West 13.8 mph 21.9 mph 0.00 in Snow Light Snow
6:51 AM 23.0 °F 10.1 °F 15.1 °F 72% 29.68 in 3.0 mi West 15.0 mph 20.7 mph 0.00 in Snow Light Snow
7:07 AM 23.0 °F 13.1 °F 15.8 °F 74% 29.66 in 1.8 mi West 9.2 mph 18.4 mph 0.00 in Snow Light Snow
7:14 AM 21.2 °F 11.7 °F 15.8 °F 80% 29.67 in 2.0 mi West 8.1 mph - 0.00 in Snow Light Snow
7:17 AM 21.2 °F 11.7 °F 14.0 °F 74% 29.67 in 5.0 mi West 8.1 mph - 0.00 in Snow Light Snow
7:51 AM 23.0 °F 10.6 °F 12.0 °F 63% 29.70 in 10.0 mi West 13.8 mph 19.6 mph 0.00 in   Clear
8:51 AM 26.1 °F 12.3 °F 8.1 °F 47% 29.73 in 10.0 mi WSW 19.6 mph 25.3 mph N/A   Partly Cloudy
9:51 AM 27.0 °F 16.7 °F 8.1 °F 45% 29.75 in 10.0 mi West 11.5 mph 19.6 mph N/A   Overcast
10:51 AM 27.0 °F 13.5 °F 7.0 °F 43% 29.77 in 10.0 mi West 19.6 mph 28.8 mph N/A   Overcast
11:51 AM 28.0 °F 16.1 °F 9.0 °F 45% 29.78 in 10.0 mi WNW 16.1 mph 21.9 mph N/A   Partly Cloudy
12:51 PM 28.9 °F 17.7 °F 3.9 °F 35% 29.76 in 10.0 mi WNW 15.0 mph 26.5 mph N/A   Scattered Clouds
1:51 PM 26.1 °F 12.7 °F 3.9 °F 39% 29.76 in 10.0 mi WNW 18.4 mph 29.9 mph N/A   Partly Cloudy
2:51 PM 30.0 °F 18.7 °F 6.1 °F 36% 29.77 in 10.0 mi WNW 16.1 mph 24.2 mph N/A   Mostly Cloudy
3:51 PM 26.1 °F 12.7 °F 3.9 °F 39% 29.81 in 10.0 mi NW 18.4 mph 27.6 mph N/A   Scattered Clouds
4:51 PM 24.1 °F 12.5 °F 3.9 °F 42% 29.86 in 10.0 mi WNW 12.7 mph 23.0 mph N/A   Scattered Clouds
5:51 PM 21.9 °F 9.8 °F 6.1 °F 51% 29.91 in 10.0 mi NW 12.7 mph - N/A   Scattered Clouds
6:51 PM 19.9 °F 12.1 °F 5.0 °F 52% 29.96 in 10.0 mi NW 5.8 mph - N/A   Mostly Cloudy
7:51 PM 19.0 °F 11.1 °F 5.0 °F 54% 29.99 in 10.0 mi NW 5.8 mph - N/A   Scattered Clouds
8:51 PM 19.4 °F 11.5 °F 6.8 °F 58% 29.99 in 10.0 mi WNW 5.8 mph - N/A   Overcast
9:51 PM 19.9 °F 10.1 °F 6.1 °F 55% 30.03 in 10.0 mi NW 8.1 mph - N/A   Overcast
10:51 PM 18.0 °F 9.8 °F 6.1 °F 60% 30.05 in 10.0 mi NNW 5.8 mph - N/A   Mostly Cloudy
11:51 PM 17.1 °F 8.7 °F 3.9 °F 56% 30.07 in 10.0 mi NNW 5.8 mph - N/A   Partly Cloudy